[Iaude] MPEC J243: 2024 JT8 [a=1.02,e=0.78,i=47.7,H=19.7]

mpec at cfa.harvard.edu mpec at cfa.harvard.edu
Fri May 10 05:58:12 EDT 2024


M.P.E.C. 2024-J243                                 Issued 2024 May 10, 09:56 UT

     The Minor Planet Electronic Circulars contain information on unusual
         minor planets, routine data on comets and natural satellites,
         and occasional editorial announcements.  They are published
    on behalf of Division F of the International Astronomical Union by the
          Minor Planet Center, Smithsonian Astrophysical Observatory,
                          Cambridge, MA 02138, U.S.A.
			  
             Prepared using the Tamkin Foundation Computer Network

                              MPC at CFA.HARVARD.EDU
            URL https://www.minorplanetcenter.net/    ISSN 1523-6714

                                    2024 JT8                                    


Observations:
     K24J08T* C2024 05 07.31857813 51 05.729-41 02 32.82         20.85wXEJ243F51
     K24J08T  C2024 05 07.32640013 51 03.120-41 02 27.09         20.89wXEJ243F51
     K24J08T  C2024 05 07.33421313 51 00.492-41 02 21.24         20.99wXEJ243F51
     K24J08T KC2024 05 07.47822813 50 12.898-41 00 19.76         20.8 GVEJ243474
     K24J08T KC2024 05 07.48784013 50 09.730-41 00 12.64         20.2 GVEJ243474
     K24J08T KC2024 05 07.49024313 50 08.892-41 00 10.51         20.4 GVEJ243474
     K24J08T KC2024 05 07.49504913 50 07.320-41 00 06.62         20.5 GVEJ243474
     K24J08T  C2024 05 09.36323313 40 16.045-40 34 32.45         20.62GVEJ243F51
     K24J08T  C2024 05 09.36405213 40 15.798-40 34 31.85         20.48GVEJ243F51
     K24J08T KC2024 05 09.46659013 39 44.402-40 32 49.38         20.6 GVEJ243474
     K24J08T KC2024 05 09.46899413 39 43.673-40 32 47.26         20.6 GVEJ243474
     K24J08T KC2024 05 09.47139813 39 42.941-40 32 45.17         20.8 GVEJ243474
     K24J08T KC2024 05 09.47380113 39 42.202-40 32 42.97         20.9 GVEJ243474
     K24J08T KC2024 05 10.39280713 35 07.529-40 18 46.26         20.9 GVEJ243474
     K24J08T KC2024 05 10.39520913 35 06.804-40 18 43.92         21.3 GVEJ243474
     K24J08T KC2024 05 10.39785213 35 06.046-40 18 41.54         20.8 GVEJ243474
     K24J08T KC2024 05 10.40001313 35 05.422-40 18 39.67         20.7 GVEJ243474

Observer details:
474 Mount John Observatory, Lake Tekapo.  Observers A. C. Gilmore, P. M.
    Kilmartin.  Measurer P. M. Kilmartin.  1.0-m f/7.7 Reflector + CCD.
F51 Pan-STARRS 1, Haleakala.  Observers J. Herman, T. Lowe, P. Minguez, A.
    Schultz, I. Smith.  Measurers K. Chambers, T. de Boer, J. Fairlamb, H.
    Gao, M. Huber, C.-C. Lin, E. Magnier, Y. Ramanjooloo, R. Wainscoat, R.
    Weryk.  1.8-m Ritchey-Chretien + CCD.

Orbital elements:
2024 JT8                                                 Earth MOID = 0.1143 AU
Epoch 2024 Mar. 31.0 TT = JDT 2460400.5                 MPC                     
M  76.21022              (2000.0)            P               Q                  
n   0.95470758     Peri.   29.33138     +0.53091020     -0.73644114             
a   1.0214626      Node    34.55307     +0.55889478     -0.06761657             
e   0.7821078      Incl.   47.66633     +0.63700156     +0.67311399             
P   1.03           H   19.77          G   0.15           U   9                  
Residuals in seconds of arc
240507 F51  0.1-  0.1+    240507 474  0.1+  0.1+    240509 474  0.1+  0.0
240507 F51  0.0   0.1+    240509 F51  0.0   0.1+    240510 474  0.2-  0.0
240507 F51  0.1-  0.1+    240509 F51  0.1+  0.1-    240510 474  0.2-  0.1+
240507 474  0.0   0.0     240509 474  0.2-  0.0     240510 474  0.1+  0.1+
240507 474  0.3+  0.3-    240509 474  0.1-  0.0     240510 474  0.3+  0.0
240507 474  0.2-  0.1-    240509 474  0.1+  0.1-

Ephemeris:
2024 JT8                 a,e,i = 1.02, 0.78, 48                  q = 0.2226
Date    TT    R. A. (2000) Decl.     Delta      r    Elong.  Phase     V
2024 04 10    16 39 55.4 -36 01 40   0.6274  1.4593   125.6    33.9    21.0
...
2024 04 25    15 09 05.8 -41 37 30   0.6154  1.5653   148.8    19.4    20.7
...
2024 05 03    14 16 23.3 -41 44 42   0.6477  1.6134   153.4    16.3    20.7
...
2024 05 09    13 42 08.1 -40 39 39   0.6894  1.6458   150.7    17.5    21.0
2024 05 10    13 37 03.8 -40 24 51   0.6977  1.6509   149.9    17.9    21.0
2024 05 11    13 32 11.2 -40 09 14   0.7064  1.6559   149.0    18.3    21.1
...
2024 05 17    13 06 59.5 -38 24 48   0.7650  1.6844   142.6    21.4    21.4
...
2024 05 25    12 43 18.9 -36 00 06   0.8580  1.7179   133.2    25.5    21.8
...
2024 06 09    12 21 13.5 -32 21 11   1.0614  1.7676   116.7    30.9    22.5

A. U. Tomatic                (C) Copyright 2024 MPC           M.P.E.C. 2024-J243





More information about the Iaude mailing list